This demonstration page uses our WeatherBlox Daily Observations layout. Learn more.

Left ArrowRight Arrow

34.16533, -84.80231

Hourly Observations for July 8, 2016

Temp ( °F °C ) Dew Point ( °F °C ) Humidity (%) Winds ( mph kmh ) Pressure ( in mb ) Visibility ( mi km ) Precip ( " mm )
12:53 am 00:53 Clear 74 23.3 70 21.1 88 88 Calm 29.98 1015 10 16 0.00 0.00
1:53 am 01:53 Clear 74 23.3 70 21.1 88 88 Calm 29.99 1016 10 16 0.00 0.00
2:53 am 02:53 Clear 71 21.7 70 21.1 96 96 Calm 29.99 1016 10 16 0.00 0.00
3:53 am 03:53 Clear 72 22.2 70 21.1 94 94 Calm 29.99 1016 10 16 0.00 0.00
4:53 am 04:53 Mostly Clear 72 22.2 70 21.1 94 94 Calm 30.00 1016 10 16 0.00 0.00
5:53 am 05:53 Mostly Clear 73 22.8 70 21.1 90 90 Calm 30.01 1016 10 16 0.00 0.00
6:53 am 06:53 Sunny 73 22.8 71 21.7 94 94 Calm 30.03 1017 10 16 0.00 0.00
7:53 am 07:53 Sunny 78 25.6 72 22.2 82 82 Calm 30.04 1017 10 16 0.00 0.00
8:53 am 08:53 Sunny 82 27.8 73 22.8 74 74 Calm 30.04 1017 10 16 0.00 0.00
9:53 am 09:53 Sunny 85 29.4 73 22.8 68 68 VRB 5 7 30.04 1017 10 16 0.00 0.00
10:53 am 10:53 Mostly Cloudy 88 31.1 74 23.3 63 63 VRB 5 7 30.04 1017 10 16 0.00 0.00
11:53 am 11:53 Mostly Cloudy 88 31.1 73 22.8 61 61 VRB 5 7 30.04 1017 10 16 0.00 0.00
12:53 pm 12:53 Mostly Sunny 91 32.8 73 22.8 56 56 VRB 3 6 30.01 1016 10 16 0.00 0.00
1:53 pm 13:53 Mostly Sunny 93 33.9 71 21.7 49 49 VRB 5 7 30.00 1016 10 16 0.00 0.00
2:53 pm 14:53 Mostly Sunny 93 33.9 71 21.7 49 49 VRB 5 7 29.98 1015 10 16 0.00 0.00
3:53 pm 15:53 Mostly Cloudy 94 34.4 72 22.2 49 49 VRB 3 6 29.96 1015 10 16 0.00 0.00
4:53 pm 16:53 Mostly Sunny 94 34.4 69 20.6 44 44 VRB 3 6 29.95 1014 10 16 0.00 0.00
5:53 pm 17:53 Partly Cloudy 93 33.9 70 21.1 47 47 VRB 3 6 29.95 1014 10 16 0.00 0.00
6:53 pm 18:53 Sunny 93 33.9 68 20 44 44 Calm 29.94 1014 10 16 0.00 0.00
7:53 pm 19:53 Sunny 90 32.2 68 20 48 48 Calm 29.95 1014 10 16 0.00 0.00
8:53 pm 20:53 Sunny 83 28.3 71 21.7 67 67 Calm 29.97 1015 10 16 0.00 0.00
9:53 pm 21:53 Clear 81 27.2 72 22.2 74 74 Calm 29.97 1015 10 16 0.00 0.00
10:53 pm 22:53 Clear 82 27.8 71 21.7 69 69 Calm 29.98 1015 10 16 0.00 0.00
11:53 pm 23:53 Clear 79 26.1 72 22.2 79 79 Calm 29.98 1015 10 16 0.00 0.00

Powered by AerisWeather